STARLINK-30381, 57785

Orbit data source: Space-Track

STARLINK-30381, 57785 is a payload satellite owned by SpaceX/Seattle (US) in LEO that was launched on Mon, 04 Sep 2023 UTC via an FALCON 9 launch vehicle from the Air Force Eastern Test Range (AFETR). Payload-class satellites include a variety of spacecraft equipped with specific instruments for various scientific and technological missions. These include communications satellites like Starlink; space stations such as the ISS; scientific satellites like the Hubble; Earth observation satellites from companies like Planet Labs, Umbra, and HawkEye 360; GPS; miniature CubeSats for education and research; and military/defense satellites.

Loading next visibility...
Identifier
57785, 2023-134Q
Orbit
LEO
Country
Flag of USUS
Related business
Manufacturer
SpaceX/Seattle
Mission
Operational Commercial Communications
Bus & Motor
STARLINK V2M, Unknown motor
Mass
730 kg wet, ~700 kg dry
Launch date (UTC)
2023-09-04 (2 years ago)
Launch vehicle
FALCON 9
Launch site
Air Force Eastern Test Range (AFETR)
Object type
Payload
Rocket body
Debris
Shape & HBR
Box + 2 Pan, 17.7 m
Radar Cross Section
33.884 m², Large (>1 m²)

Expand to show TLE details & history
Last TLE update: 13 hours ago

TLE from 13 hours ago
0 STARLINK-30381
1 57785U 23134Q   25346.92458327 -.00003878  00000-0 -27204-3 0  9991
2 57785  43.0031 308.5160 0001751 283.7461  76.3187 15.02547333126423
Epoch: 2025-12-12T22:11Z
TLE epoch observation values (Epoch: 2025-12-12T22:11:23.994Z)
Latitude
0.00002°
Longitude
-106.19318°
Altitude
558.536 km
Speed
7.584 km/s
True Right ascension
20h 34m 03s
True Declination
0° 00' 00"
Sunlit
Object was in daylight at epoch
Visualization orbit readout
Latitude
Unknown
Longitude
Unknown
Altitude
Unknown
Speed
Unknown
Apparent Right ascension
Unknown
Apparent Declination
Unknown
Sunlit
N/A
Visualization observer readout
Local Sidereal Time
09:16:23
Azimuth
Unknown
Elevation
Unknown
Doppler factor
Unknown
Orbital elements
Apogee altitude
562.183 km
Perigee altitude
559.753 km
Semi-major axis
6,939.105 km
Eccentricity
0.00018
Inclination
43.0031°
RAAN
308.516°
Arg. of periapsis
283.7461°
True anomaly
76.3382°
Mean anomaly
76.3187°
Eccentric anomaly
76.32845°
Mean motion
3.75481 °/min
Orbital period
95.88 mins
BSTAR
-0.00027204
Loading maneuver chart data...
Computing Atmospheric mass density...
Loading historical data...
Loading historical data...
Loading historical data...
Loading historical data...
Loading historical data...
Loading historical data...
Loading historical data...

Documentation

Showing up to 5 results
|